User: anonymous   Login
Location: Unspecified
(0.0000°N, 0.0000°E)
Time: 00:10:12
(UTC+00:00)
Language:

ODIN - Orbit

View from above orbital plane
View from above orbital plane
View from above satellite
View from above satellite

Ground track
Ground track

The orbit data is extracted from the following two-line orbital elements,

1 26702U 01007A   18112.58089504 +.00000589 +00000-0 +42904-4 0  9992
2 26702 097.5956 131.0263 0012365 079.4480 280.8140 15.07509682937651
Epoch (UTC): 22 April 2018 13:56:29
Eccentricity: 0.0012365
inclination: 97.5956°
perigee height: 535 km
apogee height: 552 km
right ascension of ascending node: 131.0263°
argument of perigee: 79.4480°
revolutions per day: 15.07509682
mean anomaly at epoch: 280.8140°
orbit number at epoch: 93765

The dashed part of the orbit path shows where the satellite is in the earth's shadow,  

DLR